Regional Weather Roundup
Issued by NWS Newport/Morehead, NC

Current Version | Previous Version | Graphics & Text | Print | Product List | Glossary On
Versions: 1 2 3 4 5 6 7 8 9 10 11 12 13 14 15 16 17 18 19 20 21 22 23 24 25 26 27 28 29 30 31 32 33 34 35 36 37 38 39 40 41 42 43 44 45 46 47 48 49 50
000 ASUS42 KMHX 222113 RWRMHX WEATHER ROUNDUP FOR EASTERN NORTH CAROLINA NATIONAL WEATHER SERVICE NEWPORT/MOREHEAD CITY NC 400 PM EST SUN JAN 22 2017 NOTE: "FAIR" INDICATES FEW OR NO CLOUDS BELOW 12,000 FEET WITH NO SIGNIFICANT WEATHER AND/OR OBSTRUCTIONS TO VISIBILITY NCZ015>017-031-032-045>047-102-103-222200- NORTH COAST CITY SKY/WX TMP DP RH WIND PRES REMARKS EDENTON CLOUDY 57 55 94 CALM 29.56S FOG ELIZABETH CITY CLOUDY 54 53 97 N3 29.57S KITTY HAWK NOT AVBL MANTEO CLOUDY 52 52 100 NE7 29.58R FOG $$ NCZ045>047-081-094-103-104-222200- CENTRAL COAST CITY SKY/WX TMP DP RH WIND PRES REMARKS FRISCO CLOUDY 62 59 90 N5 29.55R FOG $$ NCZ095-097-098-100-101-222200- SOUTHERN COAST CITY SKY/WX TMP DP RH WIND PRES REMARKS BEAUFORT CLOUDY 61 59 93 NW3 29.57R CEDAR ISLAND NOT AVBL JACKSONVILLE CLOUDY 61 60 97 VRB5 29.57R PINEY ISLAND CLOUDY N/A N/A N/A NW3 29.57R WILMINGTON CLOUDY 61 59 93 VRB3 29.56R $$ NCZ011>013-027>030-043-044-078>080-089-090>093-098-222200- COASTAL PLAIN CITY SKY/WX TMP DP RH WIND PRES REMARKS AHOSKIE N/A 52 52 99 N5 29.57R FOG CLINTON CLOUDY 64 60 85 S5 29.57R ELIZABETHTOWN CLOUDY 63 60 88 CALM 29.57R GOLDSBORO CLOUDY 60 60 100 E3 29.55R GREENVILLE CLOUDY 59 57 94 CALM 29.60R HAVELOCK CLOUDY 62 58 86 CALM 29.58R KENANSVILLE CLOUDY 64 59 82 S5 29.57R KINSTON CLOUDY 59 57 94 NE3 29.57R NEW BERN CLOUDY 63 58 83 S6 29.57R RICHLANDS CLOUDY 63 60 90 S3 29.57R ROCKY MOUNT CLOUDY 55 55 100 CALM 29.57R WASHINGTON CLOUDY 61 57 88 N5 N/A WHITEVILLE CLOUDY 63 58 85 S6 29.54R $$ AMZ130-135-150-152-154-156-158-170-250-252-270-ANZ085-086-088-633-658-670-222200- MARINE OBSERVATIONS STATION/POSITION TIME TEMP WIND PRES WAVE SWELL AIR SEA DIR/SP/G HT/PER HT/PER (UTC) (F) (DEG/KT/KT) (MB) (FT/S) (FT/S) CHESAPEAKE LIGHT NOT AVBL 64 E VA BEACH 2050 51 56 270/ 14/ 17 1000.4 5/ 6 3/ 6 DUCK 2048 48 46 10/ 6/ 7 1000.7 2 E DUCK 2030 47 N/A 3/13 2/13 OREGON INLET 2042 52 50 210/ 6/ 8 1000.8 13E OREGON INLT NOT AVBL HATTERAS CG 2048 58 54 340/ 3/ 4 1000.4 DIAMOND BUOY 2050 66 72 270/ 10/ 14 1000.3 4/12 3/12 CAPE LOOKOUT 2000 62 CALM / 1 999.5 BEAUFORT LAB 2048 60 52 320/ 3/ 5 1000.3 30 SE NEW RVR IN 2008 64 65 210/ 16/ 21 1000.1 30 SE NEW RVR IN 2043 65 N/A 4/13 2/13 27 SE WRIGHTSVLE 2008 66 66 180/ 21/ 31 998.6 5 SE WRIGHTSVLE 2008 57 280/ 6/ 12 1000.7 225 S CAPE HAT 2050 73 71 200/ 21/ 25 1003.6 9/ 8 3/11 41 SE CHARLESTON 1950 66 68 190/ 16/ 17 1000.4 5/ 7 3/16 $$

USA.gov is the U.S. government's official web portal to all federal, state and local government web resources and services.